Temp
16 16 16 16 16 16 15 15 15 15 14 14 14 14 14 13 13 13 13 13 13 13 12 12 13 13 13 12 12 12 13 12 12 12 12 13 13 13 13 13 13 13 13 12 12 11 11 11 11 12 12 11 11 10 10 9 9 9 8 8 8 8 8 7 7 7 7 7 6
16 16 16 16 16 16 15 15 15 14 14 14 14 14 14 13 13 13 13 13 13 13 13 13 13 13 12 12 12 12 12 12 12 12 12 12 13 13 13 13 13 13 13 12 12 11 11 11 11 11 11 11 11 10 10 9 9 9 9 8 8 8 7 7 7 7 7 6 6
16 16 16 16 16 15 15 15 14 14 14 14 14 14 14 14 13 13 13 13 13 13 13 13 12 12 12 12 12 12 12 12 12 12 12 12 12 12 13 13 13 12 12 12 12 11 11 11 11 11 11 11 11 10 10 9 9 9 8 8 8 7 7 7 7 7 6 6 6
16 16 16 16 15 15 15 15 14 14 14 14 14 14 14 13 13 13 13 13 13 13 13 13 12 12 12 12 12 12 12 12 12 12 12 12 12 12 12 12 12 12 12 12 11 11 11 11 11 11 11 11 11 10 10 9 9 9 8 8 7 7 7 7 7 6 6 6 6
16 16 16 15 15 15 15 15 14 14 14 14 14 14 13 13 13 13 13 13 12 12 13 13 13 12 12 12 12 12 12 12 12 12 12 12 12 12 12 12 12 12 12 11 11 11 11 11 11 11 11 11 11 10 10 9 9 8 8 7 7 7 7 7 7 6 6 6 6
16 16 15 15 15 15 15 14 14 14 14 14 14 14 13 13 13 13 13 12 12 12 12 12 12 12 12 12 12 12 12 11 11 11 11 12 12 12 12 12 12 12 11 11 11 10 10 10 11 11 11 11 10 10 9 9 8 8 7 7 7 7 7 7 7 6 6 6 6
16 16 15 15 15 14 14 14 14 14 14 14 14 13 13 13 13 13 13 13 13 12 12 12 12 12 12 12 12 12 11 11 11 11 11 11 11 12 12 12 12 11 11 11 10 10 10 10 10 11 11 10 10 9 9 8 8 8 7 7 7 7 7 7 6 6 6 6 6
16 16 15 15 14 14 14 14 14 14 14 13 13 13 13 13 13 13 13 13 12 12 12 12 12 12 12 12 12 11 11 11 11 11 11 11 11 11 11 12 11 11 11 11 10 10 10 10 10 11 10 10 10 9 9 8 8 7 7 7 7 7 7 7 6 6 6 6 5
16 15 15 15 14 14 14 14 14 14 13 13 13 13 13 13 13 13 13 13 12 12 12 12 12 12 12 12 12 12 11 11 11 11 11 11 11 11 11 11 11 11 11 10 10 10 10 10 10 10 10 10 10 9 9 8 8 8 7 7 7 7 6 6 6 6 6 5 5
15 15 15 14 14 14 14 14 14 14 14 13 13 13 13 13 13 13 13 13 13 12 12 12 12 12 12 12 12 11 11 11 11 10 10 11 11 11 11 11 11 11 10 10 10 10 10 10 10 10 10 10 10 9 9 8 8 8 7 7 7 7 6 6 6 6 5 5 5
15 15 14 14 14 14 14 14 14 14 14 13 13 13 13 13 13 13 13 13 12 12 12 12 12 12 12 12 11 11 11 11 10 10 10 10 11 11 11 11 11 10 10 10 10 10 10 10 10 10 10 10 9 9 9 8 8 7 7 7 7 6 6 6 6 6 5 5 5
15 14 14 14 14 14 14 14 13 13 13 13 13 13 13 13 13 13 13 12 12 12 12 12 12 12 12 12 11 11 11 10 10 10 10 10 10 10 10 10 10 10 10 10 10 10 10 10 10 10 10 9 9 9 8 8 8 7 7 7 7 6 6 6 6 6 5 5 5
14 14 14 14 14 14 14 13 13 13 13 13 13 13 13 13 13 12 12 12 12 12 12 12 12 12 12 11 11 11 10 10 10 10 10 10 10 10 10 10 10 10 10 10 10 10 10 10 10 10 10 9 9 9 8 8 8 7 7 7 7 7 6 6 6 6 5 5 5
14 14 14 14 13 13 13 13 13 13 13 13 13 13 12 12 12 12 12 12 12 12 12 11 11 11 11 11 11 10 10 10 10 9 9 9 9 9 10 10 10 10 10 10 10 10 10 10 10 10 10 9 9 8 8 8 8 7 7 7 7 7 6 6 6 5 5 5 5
14 14 14 13 13 13 13 13 13 13 12 12 12 12 12 12 12 12 12 12 12 11 11 11 11 10 10 10 10 10 10 9 9 9 9 9 9 9 10 10 10 10 10 10 10 10 10 10 10 10 10 9 9 8 8 8 7 7 7 7 7 7 6 6 6 5 5 5 5
13 13 13 13 13 13 13 13 12 12 12 12 12 12 12 12 11 11 11 11 11 11 11 11 10 10 10 10 10 10 9 9 9 9 9 9 9 9 10 10 10 10 10 10 10 10 10 10 10 10 9 9 9 8 8 7 7 7 7 7 7 6 6 6 6 5 5 5 5
13 13 13 13 12 12 12 12 12 12 12 12 11 11 11 11 11 11 11 11 11 11 10 10 10 10 10 10 10 10 9 9 9 9 9 9 9 9 10 10 10 10 10 10 10 10 10 9 9 9 9 9 8 8 8 7 7 7 7 7 7 6 6 6 6 6 6 5 5
13 13 12 12 12 12 12 12 12 11 11 11 11 11 11 11 11 11 11 11 11 11 11 11 10 10 10 10 10 9 9 9 9 9 9 9 10 10 10 10 10 10 10 10 10 10 10 9 9 9 9 8 8 8 8 7 7 7 7 7 6 6 6 6 6 6 6 5 5
13 12 12 12 12 12 12 11 11 11 11 11 11 11 11 11 11 11 11 11 11 11 11 11 10 10 10 10 9 9 9 9 9 9 9 10 10 10 10 10 10 10 9 10 10 10 10 9 9 9 9 8 8 8 8 7 7 7 7 7 6 6 6 6 6 6 6 5 5
12 12 12 12 12 12 12 11 11 11 11 11 11 11 11 11 11 11 11 11 11 11 11 11 10 10 10 9 9 9 9 9 9 9 9 9 9 9 10 10 10 9 9 9 9 9 9 9 9 9 8 8 8 8 8 7 7 7 7 6 6 6 6 6 6 6 6 5 5
12 12 12 12 12 12 11 11 11 11 11 11 11 11 11 11 11 11 11 11 11 11 11 10 10 10 9 9 9 9 9 9 9 9 9 9 9 9 10 10 10 9 9 9 9 9 9 9 9 8 8 8 8 8 8 7 7 7 7 6 6 6 7 7 6 6 6 6 5
12 12 11 11 11 11 11 11 11 11 10 10 10 10 10 10 10 10 11 11 10 10 10 10 10 10 9 9 9 9 9 9 9 9 9 9 9 9 9 9 9 9 9 9 9 9 9 8 8 8 8 8 8 8 8 7 7 7 7 7 7 7 7 7 7 6 6 6 5
11 11 11 11 11 11 11 10 10 10 10 10 10 10 10 10 10 10 10 10 10 10 10 10 9 9 9 9 9 9 9 9 8 8 8 8 8 8 9 9 9 9 9 9 9 8 8 8 8 8 8 8 8 8 7 7 7 7 7 7 7 7 7 7 7 6 6 5 5
11 11 11 11 10 10 10 10 10 10 10 10 10 10 10 10 10 10 9 9 9 9 9 9 9 9 9 9 9 9 9 8 8 8 8 8 8 8 8 9 9 9 9 9 8 8 8 8 8 8 8 8 8 7 7 7 7 7 7 7 7 7 7 7 6 6 5 5 5
11 11 10 10 10 10 10 10 10 9 9 9 9 9 9 9 9 9 9 9 9 9 9 9 8 8 8 8 8 8 8 8 8 8 7 7 8 8 8 9 9 9 9 9 8 8 8 8 8 8 8 8 7 7 7 6 6 6 7 7 7 6 6 6 6 6 5 5 5
10 10 10 10 10 10 9 9 9 9 9 9 9 9 9 9 9 9 9 9 8 8 8 8 8 8 8 8 8 8 8 8 8 8 8 7 7 8 8 9 9 9 9 9 8 8 8 8 8 8 8 7 7 7 7 7 7 7 7 7 6 6 6 6 6 5 5 5 5
10 10 10 10 9 9 9 9 9 9 9 9 9 9 9 8 8 8 8 8 8 8 8 8 8 8 8 8 8 8 7 7 7 7 8 8 8 8 8 9 9 9 9 9 8 8 8 8 8 8 8 7 7 7 7 7 7 7 7 6 6 6 5 5 5 5 5 5 4
10 10 9 9 9 9 9 9 9 9 9 8 8 8 8 8 8 8 8 8 8 8 8 7 7 7 7 7 7 7 7 7 7 7 7 8 8 8 9 9 9 9 9 9 8 8 8 8 8 8 7 7 7 7 7 7 7 7 6 6 6 5 5 5 4 4 4 4 4
10 9 9 9 9 9 9 9 9 9 8 8 8 8 8 8 8 8 8 8 7 7 7 7 7 7 7 7 7 7 7 7 7 7 7 7 8 8 9 9 9 9 9 9 8 8 8 8 8 7 7 7 6 6 6 6 6 6 6 5 5 5 4 4 4 4 4 4 4
9 9 9 9 9 9 9 8 8 8 8 8 8 8 8 8 7 7 7 7 7 7 7 7 7 7 7 7 7 7 7 7 7 7 7 7 8 8 8 9 9 9 9 9 8 8 8 8 7 7 6 6 5 6 6 6 6 6 5 5 5 4 4 4 4 4 3 3 3
9 9 9 9 9 9 8 8 8 8 8 8 8 8 7 7 7 7 7 7 7 7 7 7 7 7 7 7 7 7 7 7 7 7 7 7 8 8 8 9 9 9 9 8 8 8 8 7 7 6 6 5 5 5 5 5 6 5 5 5 5 4 4 4 4 4 3 3 3
9 9 9 9 8 8 8 8 8 8 8 8 8 7 7 7 7 7 7 7 7 7 7 7 7 7 6 6 6 6 7 7 7 7 7 7 8 8 8 9 9 9 8 8 8 8 7 7 6 6 5 5 5 5 5 5 5 5 5 5 4 4 4 4 4 4 4 4 3
9 9 9 8 8 8 8 8 8 8 8 8 8 7 7 7 7 7 7 7 7 7 7 6 6 6 6 6 6 6 6 6 7 7 7 7 8 8 8 8 8 8 8 8 8 7 7 7 6 6 6 5 5 5 5 5 5 5 5 4 4 4 4 4 4 4 4 4 4
9 9 9 8 8 8 8 8 8 8 8 8 8 7 7 7 7 7 7 7 7 7 7 7 6 6 6 6 6 6 6 6 6 7 7 7 7 8 8 8 8 8 8 8 7 7 7 6 6 6 6 6 6 6 5 5 5 5 5 5 4 4 4 4 4 4 4 4 4
9 9 9 9 8 8 8 8 8 8 8 8 8 7 7 7 7 7 7 7 7 7 7 6 6 6 6 6 6 6 6 6 6 7 7 7 7 7 7 8 8 8 8 7 7 7 7 6 6 6 6 6 6 6 6 5 5 5 5 5 5 4 4 4 4 4 4 4 4
8 8 8 8 8 8 8 8 8 8 8 8 8 8 7 7 7 7 7 7 7 7 7 6 6 6 6 6 6 6 6 6 6 7 7 7 7 7 7 8 8 8 7 7 7 7 7 6 6 6 6 6 6 6 5 5 5 5 5 5 4 4 4 4 4 4 4 4 4
8 8 8 8 8 8 8 8 8 8 8 8 8 8 7 7 7 7 7 7 7 7 7 6 6 6 6 6 6 6 6 6 7 7 7 7 7 7 7 7 7 7 7 7 7 7 6 6 6 6 6 6 6 6 5 5 5 5 5 4 4 4 4 4 4 4 4 3 3
7 8 8 8 8 8 8 8 8 8 8 8 8 8 7 7 7 7 7 7 7 7 7 6 6 6 6 6 6 6 6 6 7 7 7 7 7 7 7 7 7 7 7 7 7 6 6 6 6 6 6 6 6 5 5 5 5 5 4 4 4 4 4 4 3 3 3 3 3
7 7 8 8 8 8 8 8 8 8 8 8 8 8 7 7 7 7 7 7 7 7 7 6 6 6 6 6 6 6 6 6 7 7 7 7 7 7 7 7 7 7 7 7 6 6 6 6 6 6 6 6 5 5 5 5 5 4 4 4 4 4 3 3 3 3 3 3 3
7 7 8 8 8 8 8 8 8 8 8 8 8 7 7 7 7 7 7 7 7 7 7 6 6 6 6 6 6 6 6 7 7 7 7 7 7 7 7 6 6 6 6 6 6 6 6 6 6 6 5 5 5 5 5 5 4 4 4 4 4 3 3 3 3 3 3 3 3
7 7 7 8 8 8 8 8 8 8 8 7 7 7 7 7 7 7 7 7 7 6 6 6 6 6 6 6 7 7 7 7 7 7 7 7 7 6 6 6 6 6 6 6 6 6 6 6 5 5 5 5 5 5 5 5 4 4 4 4 3 3 3 3 3 2 2 2 2
Height
773 774 775 776 776 777 778 779 780 781 782 783 784 786 786 787 789 790 791 792 794 795 796 797 799 800 802 803 804 806 807 808 809 811 811 812 813 815 816 816 817 817 818 819 820 821 821 821 822 823 823 823 824 824 825 825 826 826 826 826 827 827 828 828 828 829 829 829 829
772 773 774 775 775 776 776 778 779 780 781 782 783 784 785 786 787 788 790 791 792 794 795 796 798 799 800 801 803 804 806 807 808 809 810 811 812 813 814 815 816 816 817 817 818 819 820 820 821 821 821 822 822 823 823 824 824 825 825 826 826 826 826 827 827 827 828 828 828
771 772 773 773 774 774 775 776 777 778 779 781 782 783 784 785 786 787 788 790 791 792 794 795 796 797 799 800 801 803 804 805 806 807 809 810 811 812 813 813 814 815 816 816 817 818 818 819 819 820 820 821 821 822 822 823 823 823 824 824 825 825 825 826 826 826 827 827 827
770 771 771 771 772 773 774 775 776 777 778 780 781 782 783 784 785 786 787 789 790 791 792 793 795 796 797 799 800 801 803 804 805 806 807 809 810 811 811 812 813 813 814 815 816 816 817 818 818 818 819 819 820 820 821 821 822 822 822 823 823 824 824 825 825 825 826 826 826
769 769 770 770 771 772 773 774 775 776 777 779 780 781 782 784 785 786 787 788 789 790 791 792 794 795 796 797 799 800 801 803 804 805 806 807 808 809 810 811 811 812 813 814 814 815 816 816 817 817 817 818 819 819 820 820 820 821 821 822 822 823 823 823 824 824 824 825 825
768 768 769 769 770 771 772 773 774 775 776 778 779 780 781 782 783 784 786 787 788 789 790 791 792 794 795 796 798 799 800 801 803 804 805 806 807 808 809 809 810 811 811 812 813 814 814 815 815 816 816 816 817 818 818 819 819 820 820 821 821 821 822 822 823 823 823 824 824
767 767 768 769 770 771 771 772 774 775 776 777 778 779 780 781 782 783 784 785 787 788 789 790 791 792 793 795 796 797 799 800 801 802 803 804 805 806 807 808 809 810 810 811 811 812 813 813 814 814 815 815 816 816 817 818 818 819 819 819 820 820 821 821 821 822 822 822 822
766 766 767 768 769 770 771 772 773 774 775 776 777 778 779 780 781 782 783 784 786 786 787 789 790 791 791 793 794 796 797 798 799 801 802 803 804 805 806 806 807 808 809 809 810 811 811 812 812 813 813 814 815 815 816 816 817 817 818 818 819 819 820 820 820 821 821 821 821
765 766 766 767 768 769 770 771 772 773 774 775 776 777 778 779 780 781 782 783 784 785 786 787 788 789 790 791 793 794 795 796 797 799 800 801 802 803 804 805 806 806 807 808 809 809 810 810 811 811 812 812 813 814 815 815 816 816 817 817 818 818 818 819 819 819 820 820 820
764 765 765 766 767 768 769 771 771 772 773 775 776 776 777 778 778 779 780 781 782 783 784 785 786 788 789 790 791 792 793 795 796 797 798 799 800 801 802 803 804 805 805 806 807 808 808 809 809 810 811 811 812 813 813 814 815 815 816 816 816 817 817 818 818 818 818 819 819
763 763 764 765 766 767 769 770 771 772 772 773 775 775 776 776 777 778 779 780 781 781 782 783 785 786 787 788 790 791 792 793 794 795 796 797 798 799 800 801 801 803 804 805 806 806 807 807 808 809 809 810 811 811 812 812 813 814 814 815 815 816 816 816 817 817 817 817 817
762 763 764 765 766 766 768 769 770 771 771 772 773 774 775 775 776 776 777 778 779 780 781 782 783 784 786 787 788 789 790 791 792 793 794 795 796 797 798 799 800 801 802 803 804 805 805 806 806 807 808 809 809 810 811 811 812 812 813 813 814 814 815 815 816 816 816 816 816
761 762 763 764 765 766 767 767 768 769 770 771 772 773 773 774 775 776 776 777 778 779 780 781 782 783 784 785 786 788 789 790 791 792 793 794 795 796 797 798 799 800 801 802 802 803 804 805 805 806 806 807 808 809 809 810 811 811 811 812 812 813 813 814 814 815 815 815 815
761 761 762 763 764 765 766 766 767 768 769 770 771 772 773 773 774 775 776 776 777 778 779 780 781 782 783 784 786 786 788 789 790 791 792 793 794 795 796 797 798 799 800 801 801 802 802 803 804 804 805 806 806 807 808 809 809 810 810 811 811 811 812 812 813 813 813 814 814
760 761 761 762 763 764 765 766 766 767 768 769 770 771 772 773 774 774 775 776 776 777 778 779 781 782 783 784 785 786 787 788 790 791 791 792 793 794 795 796 797 798 799 799 800 801 801 802 802 803 804 805 805 806 807 807 808 808 809 809 810 810 811 811 811 812 812 812 812
759 760 761 761 762 763 764 765 766 767 768 769 770 771 771 772 773 774 775 775 776 777 778 779 780 781 783 784 785 786 787 788 789 790 791 791 792 793 794 795 796 796 797 798 799 800 800 801 801 802 803 804 804 805 806 806 807 807 808 808 809 809 809 810 810 810 811 811 811
759 760 760 761 762 763 764 765 766 767 768 768 770 770 771 772 772 773 774 775 775 776 777 778 780 781 782 783 784 785 786 787 788 789 789 790 791 792 793 793 794 795 796 797 797 798 799 800 801 801 802 803 803 804 805 805 806 806 807 807 807 808 808 809 809 809 809 809 809
758 759 760 761 761 762 764 765 766 766 767 768 769 770 771 771 772 772 773 774 775 776 777 778 779 780 780 781 782 783 784 785 786 787 788 789 790 791 791 792 793 794 795 796 796 797 798 799 800 801 801 802 802 803 804 804 805 805 806 806 806 807 807 807 807 808 808 808 808
758 758 759 760 761 762 763 764 765 766 767 767 768 769 770 770 771 771 772 773 774 775 776 777 777 778 779 779 780 781 782 783 784 786 786 788 789 790 790 791 792 793 794 795 796 796 797 798 799 799 800 801 801 802 802 803 804 804 805 805 805 806 806 806 806 806 806 806 806
757 758 758 759 760 761 762 763 764 765 765 766 767 768 768 769 769 770 771 771 772 774 775 775 776 777 777 778 779 780 781 782 784 785 786 787 788 789 789 790 791 792 793 794 795 796 796 797 798 798 799 800 800 801 801 802 802 803 803 804 804 804 805 805 805 805 805 805 805
757 757 758 758 759 760 761 762 763 764 764 765 766 766 767 768 768 769 770 771 771 772 773 774 775 775 776 777 778 780 781 782 783 784 785 786 787 787 788 789 791 791 792 793 794 795 796 796 797 797 798 799 799 800 800 801 801 802 802 802 802 803 803 803 804 804 804 803 803
756 757 757 758 759 760 761 762 763 763 764 765 765 766 766 767 768 768 769 770 771 771 772 773 774 774 775 776 777 779 780 781 782 783 784 785 786 786 787 789 790 791 791 792 793 794 795 795 796 796 797 797 798 799 799 800 800 800 800 801 801 801 802 802 802 802 802 801 801
756 757 757 758 759 760 761 761 762 763 763 764 765 765 766 766 767 768 769 769 770 771 771 772 773 774 775 776 777 778 779 780 781 782 783 784 785 786 787 788 789 790 791 791 792 793 793 794 795 795 796 796 797 797 798 798 798 798 799 799 799 800 800 800 800 800 800 799 799
756 756 757 758 759 759 760 761 762 762 763 763 764 765 765 766 767 767 768 769 769 770 771 772 773 774 775 776 776 777 778 780 781 781 782 783 784 785 786 787 788 789 790 791 791 792 793 793 794 794 795 795 796 796 796 796 797 797 797 797 798 798 798 798 798 798 798 797 797
756 756 757 757 758 759 760 761 761 762 762 763 764 764 765 766 766 767 768 768 769 770 771 771 772 773 774 775 776 777 778 779 780 780 781 782 783 784 785 786 787 788 789 790 791 791 792 792 793 793 794 794 795 795 795 795 795 796 796 796 796 796 796 796 796 796 796 795 795
756 756 756 757 758 759 760 760 761 761 762 763 763 764 765 766 766 767 767 768 769 769 770 771 771 772 773 775 776 776 777 778 779 780 780 781 782 783 784 785 786 787 788 789 790 790 791 791 792 792 792 793 793 793 793 793 794 794 794 795 795 795 795 794 794 793 793 793 793
756 756 756 757 758 759 759 760 761 761 762 762 763 764 764 765 766 766 767 768 768 769 770 771 771 772 773 774 775 776 776 777 778 779 780 780 781 782 783 784 785 786 787 788 789 789 790 790 791 791 791 791 791 791 791 792 792 792 793 793 793 793 793 792 791 791 791 791 791
755 756 756 757 757 758 759 760 760 761 761 762 762 763 764 765 766 766 767 767 768 769 770 770 771 771 772 773 774 775 776 776 777 778 779 780 781 782 783 784 785 786 786 787 788 788 789 789 789 790 790 790 790 790 790 790 791 791 791 791 791 791 790 790 790 789 789 788 788
755 756 756 756 757 758 759 759 760 760 761 761 762 763 764 764 765 766 766 767 768 769 769 770 770 771 771 772 773 774 775 776 776 777 779 780 781 781 782 783 784 785 786 786 787 787 788 788 788 788 788 788 788 788 788 788 789 789 789 789 789 788 788 788 787 787 786 786 786
755 755 756 756 757 758 758 759 760 760 761 761 762 763 763 764 765 766 766 767 767 768 769 769 770 771 771 771 772 773 774 775 776 777 778 779 780 781 781 782 783 784 785 786 786 786 787 787 787 787 787 787 787 786 786 786 787 787 787 787 786 786 786 786 785 785 784 784 783
755 755 756 756 757 757 758 759 759 760 761 761 762 762 763 764 765 765 766 766 767 768 769 769 770 770 771 771 772 773 774 775 775 776 777 778 779 780 781 781 782 783 784 785 785 786 786 786 786 786 786 786 786 786 785 785 785 785 785 785 784 784 784 784 783 783 782 782 781
755 755 756 756 757 757 758 759 759 760 761 761 761 762 763 764 764 765 766 766 767 768 768 769 769 770 771 771 772 773 773 774 775 776 776 777 778 779 780 781 782 782 783 784 784 785 785 785 785 785 785 785 785 785 784 784 784 783 783 782 782 782 782 782 781 781 781 780 780
755 755 756 756 757 757 758 759 759 760 760 761 761 762 763 763 764 765 766 766 767 767 768 768 769 770 771 771 772 772 773 774 774 775 776 777 778 779 780 780 781 782 782 783 783 784 784 784 784 784 784 784 784 784 784 783 783 782 781 781 780 780 780 780 779 779 778 778 778
755 755 756 756 757 757 758 759 759 760 761 761 761 762 763 763 764 765 766 766 767 767 768 768 769 770 770 771 771 772 773 774 774 775 776 777 778 779 779 780 780 781 781 782 782 783 783 783 783 783 783 783 783 783 782 782 781 781 780 779 779 778 778 778 777 777 776 776 776
755 756 756 756 757 758 758 759 759 760 760 761 761 762 763 763 764 765 766 766 767 767 768 769 769 770 771 771 772 772 773 774 774 775 776 777 777 778 778 779 780 780 781 781 781 781 781 781 781 782 782 782 781 781 781 780 779 779 778 778 777 777 776 776 776 775 775 775 774
755 756 756 756 757 758 758 759 759 760 760 761 761 762 763 763 764 765 766 766 767 767 768 769 770 770 771 771 772 772 773 774 774 775 776 776 777 777 778 778 779 779 780 780 780 780 780 780 781 781 781 780 780 779 779 778 777 777 776 776 775 775 775 774 774 774 773 773 772
755 756 756 756 757 758 758 759 759 760 760 761 761 762 763 763 764 765 766 766 767 768 768 769 770 770 771 771 772 772 773 774 774 775 776 776 776 777 777 777 778 778 779 779 779 779 779 779 779 779 779 779 778 777 777 776 776 775 774 774 773 773 773 772 772 772 771 771 771
755 756 756 757 757 758 758 759 759 760 760 761 761 762 763 764 764 765 766 766 767 768 768 769 769 770 771 771 772 772 773 774 775 775 776 776 776 776 777 777 777 777 778 778 778 778 778 778 778 778 777 777 776 776 775 775 774 773 772 772 771 771 771 771 770 770 769 769 769
755 756 756 757 757 758 758 759 759 760 761 761 762 762 763 764 765 765 766 767 767 768 768 769 770 770 771 771 772 773 773 774 775 775 775 776 776 776 776 776 776 776 776 777 777 777 776 776 776 776 776 776 775 774 774 773 772 771 771 770 769 769 769 769 768 768 767 767 767
756 756 756 757 757 758 759 759 760 760 761 761 762 763 763 764 765 766 766 767 768 768 769 769 770 771 771 772 772 773 773 774 774 775 775 775 775 775 775 775 775 775 775 775 775 775 775 775 775 775 774 774 773 773 772 771 770 769 769 768 768 767 766 766 766 766 766 765 765
756 756 757 757 758 758 759 759 760 761 761 762 763 763 764 765 765 766 766 767 768 768 769 770 770 771 771 772 772 773 773 773 774 774 774 774 774 774 774 774 774 774 774 774 774 774 774 773 773 773 773 772 771 771 770 770 769 767 767 766 766 766 765 764 764 764 764 764 763
Wind_Speed
26 27 28 28 29 29 30 30 30 31 32 32 31 31 30 30 30 30 31 31 32 32 32 32 32 31 31 30 30 29 29 28 28 27 27 26 25 23 21 19 18 17 17 16 15 14 14 12 11 10 9 8 7 8 8 9 10 10 10 10 10 10 10 10 10 10 10 9 9
26 27 28 28 29 29 30 30 30 30 31 32 32 31 31 30 30 30 30 31 31 31 31 31 31 31 30 30 30 29 29 29 29 28 27 26 25 23 22 20 19 18 18 17 16 15 14 13 12 11 9 9 8 8 9 10 10 10 10 10 10 10 10 10 10 9 9 9 9
26 26 27 27 28 29 29 29 30 30 31 31 32 31 30 30 30 30 30 30 31 31 30 30 30 30 30 30 29 29 29 29 29 29 28 27 26 24 23 21 20 19 18 17 16 16 15 14 12 11 10 9 8 9 9 10 9 9 9 9 9 9 9 9 9 9 9 10 10
25 25 26 27 28 29 29 30 30 30 30 30 30 30 29 29 29 29 29 30 30 30 30 30 29 29 29 29 29 29 29 29 29 29 28 27 26 25 24 22 21 20 19 18 17 16 15 14 13 11 10 9 9 9 9 9 8 8 8 8 8 9 9 9 9 10 10 10 10
25 25 25 26 27 28 29 29 29 29 29 30 29 29 28 27 27 27 28 28 28 29 29 29 28 28 28 28 29 29 29 29 29 29 28 28 27 26 25 23 22 21 20 19 18 17 16 14 13 12 11 10 9 8 8 8 8 8 8 8 9 9 10 10 10 10 10 11 11
24 24 24 25 26 26 27 28 28 28 29 29 29 28 27 27 27 27 27 27 28 28 28 28 28 28 28 28 28 28 29 29 29 29 29 28 28 27 26 24 23 21 20 19 18 17 16 15 14 12 11 10 9 9 8 8 9 9 9 10 10 10 10 10 10 11 11 11 11
23 23 23 23 24 25 26 26 27 27 27 28 28 28 28 27 27 27 27 27 27 27 27 27 27 28 28 28 28 28 29 29 29 29 29 29 29 28 26 25 23 22 21 20 19 18 17 16 14 13 12 11 10 10 10 10 10 11 11 11 11 11 10 10 10 10 11 11 11
22 22 22 23 24 25 25 26 25 25 26 27 27 28 28 28 28 27 27 27 27 27 28 28 28 28 28 28 28 29 29 30 30 30 30 30 29 28 27 25 24 23 22 21 20 19 18 16 15 14 13 12 11 11 11 11 12 12 12 12 12 11 11 10 10 11 11 11 12
20 21 21 22 23 24 25 25 25 25 26 27 27 28 28 28 28 28 28 28 28 28 28 28 28 28 28 28 28 29 30 30 31 31 31 31 30 29 28 26 25 24 23 21 20 19 18 17 15 14 13 12 12 12 11 12 12 12 13 12 12 12 11 11 11 11 12 12 13
20 20 21 22 23 23 24 24 25 25 26 26 27 28 28 28 28 29 28 28 28 28 28 29 29 29 28 28 29 29 30 31 31 32 32 32 31 30 29 28 26 25 23 22 21 20 19 17 16 15 14 13 12 12 11 11 12 12 13 12 12 12 12 12 12 12 12 13 13
20 20 21 22 23 23 24 24 24 25 26 26 27 28 28 29 29 29 29 29 28 29 29 29 29 29 29 29 29 30 30 31 32 33 33 33 32 31 30 29 27 25 24 23 21 20 19 18 17 16 14 13 12 12 11 11 11 12 12 12 12 12 12 12 12 13 13 13 14
20 21 21 22 23 23 24 24 25 25 26 27 27 28 28 29 29 29 29 29 29 29 29 29 29 29 29 29 30 30 31 31 32 33 33 33 33 32 30 29 27 25 24 22 21 20 19 18 17 16 15 14 12 12 12 12 11 12 12 12 12 12 13 13 13 13 13 14 14
21 21 22 22 23 23 24 25 25 26 26 27 27 28 28 28 29 29 29 29 29 29 29 29 29 29 29 30 30 30 31 32 33 33 33 33 32 31 29 28 26 25 23 22 21 20 19 18 17 16 15 14 13 12 12 12 12 12 12 12 12 13 13 13 13 13 13 14 15
22 22 22 23 23 24 25 25 26 26 26 26 27 27 27 27 27 28 28 28 28 28 28 28 28 28 29 29 30 30 31 31 32 32 32 31 30 30 28 27 26 24 23 22 21 20 19 18 17 16 15 14 13 12 12 12 12 12 12 12 12 13 13 13 13 13 14 15 16
22 22 23 23 24 24 25 26 26 26 25 26 26 26 26 26 26 27 27 27 27 28 28 28 28 27 27 28 28 29 30 30 31 31 30 30 29 29 28 27 25 24 23 22 21 20 19 18 16 15 14 13 13 12 12 12 11 11 11 12 12 13 13 13 13 14 15 15 17
22 22 23 23 24 24 25 25 25 24 24 24 24 24 24 24 25 25 26 26 27 27 27 27 26 26 26 27 28 28 29 30 30 30 30 29 29 28 28 27 25 24 23 22 21 20 19 17 16 15 13 13 12 12 12 12 12 12 12 12 12 13 13 14 14 15 15 16 18
21 21 22 22 23 23 24 24 24 23 22 22 22 22 23 23 24 24 25 26 26 26 25 26 26 26 27 27 28 29 30 30 30 31 30 30 29 29 28 27 26 24 23 22 21 20 19 17 16 14 13 12 12 12 12 12 12 12 12 12 13 13 14 14 15 15 16 17 19
20 20 21 21 22 22 22 23 22 22 21 21 21 21 22 23 23 24 25 26 26 25 25 25 26 27 28 29 30 30 31 31 31 31 30 30 30 29 28 27 25 24 23 22 21 20 18 17 15 14 13 12 12 11 11 11 11 12 12 12 13 13 14 14 15 15 17 18 20
19 20 20 21 21 22 22 22 22 22 22 22 22 22 23 24 24 25 25 26 26 26 25 26 27 28 29 30 30 31 31 31 31 30 30 30 29 29 28 26 25 24 23 22 20 19 17 16 14 13 12 12 11 11 11 11 11 11 12 12 12 13 13 14 14 15 17 18 20
19 20 21 21 22 22 23 23 23 23 23 23 24 24 24 25 25 25 26 26 26 26 26 27 28 29 30 30 31 31 31 31 30 30 29 29 28 28 27 26 25 24 23 21 19 18 16 14 13 13 12 12 11 11 11 10 11 11 11 11 12 12 12 13 14 15 17 19 20
19 19 20 21 22 22 22 23 23 23 23 23 24 24 25 25 25 25 26 26 26 26 27 28 28 29 30 30 31 31 30 30 29 29 28 28 28 27 26 25 24 23 22 20 18 17 15 14 13 12 12 11 11 10 10 10 10 11 11 11 11 12 12 13 15 16 18 19 21
18 18 19 20 20 20 21 21 21 21 21 22 23 24 24 25 25 25 26 26 26 26 27 28 29 29 30 31 31 30 30 29 28 28 27 27 27 26 26 24 23 22 21 19 18 16 15 14 13 12 11 11 10 10 10 10 10 10 10 11 11 12 13 15 16 18 19 20 21
17 17 18 18 18 19 19 19 20 20 21 21 22 23 24 25 25 25 25 26 26 26 27 28 28 29 30 30 30 30 29 28 27 27 26 26 26 25 25 24 22 21 20 18 17 15 14 13 12 11 11 10 10 10 10 10 10 10 11 12 13 14 16 17 18 19 21 22 23
16 16 16 17 17 18 18 19 19 19 20 21 22 23 24 24 25 25 25 25 26 26 26 27 27 28 29 29 29 29 28 28 27 26 26 25 25 25 24 23 21 20 18 17 16 15 14 13 12 11 10 10 10 10 11 11 11 11 12 13 15 16 18 19 20 21 22 23 24
14 15 15 15 16 16 17 18 18 19 19 20 21 22 23 23 24 24 24 25 25 25 26 26 27 27 27 27 27 28 28 27 27 26 26 25 25 24 24 22 21 19 17 16 15 14 13 12 11 10 10 10 11 11 11 11 11 12 13 15 16 18 20 21 22 23 24 25 25
13 13 14 14 14 15 16 17 17 18 19 19 20 21 22 23 23 23 24 24 24 24 25 25 25 26 26 26 26 26 26 27 27 26 26 25 25 24 23 22 20 18 17 15 14 13 12 11 11 10 11 11 12 12 12 12 13 14 15 17 18 20 22 23 24 25 26 26 26
11 12 12 13 13 14 15 16 16 17 18 18 19 20 21 21 22 22 23 23 23 24 24 24 24 25 25 25 26 26 26 26 26 26 25 25 24 23 22 21 19 18 16 15 14 13 12 11 11 11 12 12 12 12 13 13 14 15 17 19 21 22 23 24 26 26 27 27 27
10 11 11 12 12 13 14 15 16 16 17 18 18 19 20 20 21 21 22 22 22 22 22 23 23 24 24 24 25 25 25 25 25 25 24 24 23 22 21 20 18 17 15 14 13 12 12 11 12 12 13 13 13 13 14 14 16 17 19 21 22 23 24 25 26 27 27 28 28
9 10 10 11 11 12 13 14 15 16 16 17 17 18 19 19 20 20 21 21 21 22 22 22 22 23 23 24 24 25 25 24 24 24 23 23 22 21 20 19 17 16 14 13 12 12 12 12 13 14 14 14 14 14 15 16 17 19 20 22 23 24 25 26 26 27 28 28 28
9 9 10 10 11 11 12 13 14 15 15 15 16 16 17 18 19 19 20 20 21 21 22 22 22 22 22 23 24 24 24 24 23 23 23 22 21 20 19 18 16 15 13 12 12 12 12 13 14 15 15 15 15 16 17 18 19 21 22 23 24 25 26 26 27 28 28 28 29
8 9 9 9 10 11 11 12 13 13 14 14 15 15 16 17 18 18 19 19 20 21 21 21 21 22 22 22 22 23 23 23 23 23 22 22 21 20 18 16 15 14 13 12 12 12 13 14 15 15 15 16 17 18 19 20 21 22 23 24 25 26 27 27 28 28 29 29 29
7 8 8 9 9 10 10 11 12 12 13 13 13 14 15 16 17 18 18 18 19 20 20 20 21 21 21 21 21 22 22 23 23 22 22 21 20 18 17 15 14 13 12 12 12 12 14 15 15 16 16 17 18 19 20 22 23 24 25 26 27 28 28 29 29 30 30 30 30
7 7 7 7 8 8 9 10 11 11 12 12 13 13 14 15 16 17 17 17 18 19 20 20 20 20 20 20 20 21 21 22 22 21 21 19 18 16 15 14 13 12 12 12 12 13 15 16 16 16 17 17 19 20 22 23 24 25 26 27 28 29 30 30 31 31 31 31 31
6 6 6 6 7 7 8 9 10 10 11 12 12 13 13 14 15 16 16 17 17 18 19 19 19 19 19 19 19 20 20 20 20 20 19 18 16 15 14 13 13 12 12 12 13 14 15 16 16 17 17 18 20 21 22 23 25 25 27 27 28 29 29 30 30 31 31 31 31
6 5 5 5 6 6 7 8 9 10 10 11 11 12 13 14 15 15 16 16 16 17 17 17 17 18 17 17 17 18 18 18 18 18 17 16 15 14 13 13 12 12 12 13 14 15 16 16 17 18 18 19 21 22 23 24 25 26 27 28 28 29 29 29 29 30 30 30 30
6 5 4 5 5 6 6 7 8 9 10 10 11 11 12 13 13 14 15 15 15 15 15 15 15 16 16 16 16 16 16 16 16 15 15 14 13 12 12 12 12 13 13 14 15 16 16 17 18 19 19 20 21 23 24 25 26 27 27 28 28 28 28 29 29 29 29 29 29
4 4 4 4 4 5 5 6 7 8 9 9 10 11 11 12 12 13 13 13 13 14 14 14 14 15 15 16 15 15 15 15 14 13 13 12 11 11 11 12 13 14 15 15 16 17 17 18 19 19 20 21 22 23 24 25 26 26 27 27 27 28 27 27 27 27 27 27 27
3 3 3 3 4 4 5 5 6 7 8 8 9 9 10 10 11 11 12 12 13 13 13 13 14 14 15 15 15 14 14 13 12 12 11 10 10 10 11 13 14 15 16 16 17 17 18 19 19 20 20 21 23 24 25 25 26 26 26 26 27 27 26 26 25 25 25 25 25
3 3 3 3 3 4 4 5 5 6 7 7 7 8 8 9 9 10 11 12 12 12 13 13 13 13 13 13 13 13 12 12 11 10 9 9 10 11 12 14 15 16 17 17 17 18 19 20 20 21 21 22 23 24 25 25 26 26 26 26 26 26 25 25 24 24 24 24 24
3 3 3 3 3 3 3 4 5 5 6 6 6 6 7 8 9 10 10 11 11 11 11 12 12 12 12 11 11 10 10 9 9 9 9 10 11 12 13 14 15 17 17 17 18 19 19 20 21 21 21 22 23 24 24 25 25 26 26 26 25 25 25 24 24 23 23 23 23
4 3 3 3 3 3 3 4 4 5 5 5 5 6 7 8 9 10 10 10 10 10 10 10 10 10 9 9 8 8 7 7 8 9 9 10 11 12 13 14 15 17 17 18 19 19 20 21 21 21 21 22 22 23 24 24 24 25 25 25 25 24 24 24 23 23 23 23 23
Wind_Direction
192 194 195 198 199 198 197 195 194 194 193 191 190 191 192 193 192 193 195 197 198 199 201 203 205 206 206 207 208 209 210 211 211 211 211 212 213 214 213 213 214 214 214 213 211 211 212 215 218 221 222 222 216 208 205 207 210 214 218 221 222 224 226 226 228 230 233 235 240
194 195 197 199 200 199 196 194 194 194 194 194 193 194 195 195 195 195 196 198 200 202 203 204 206 206 207 208 210 211 211 211 211 211 211 212 213 214 213 213 213 214 215 213 211 209 210 213 217 219 220 219 215 209 207 210 213 216 219 222 223 225 227 229 231 232 233 234 234
194 196 198 200 199 196 194 192 192 193 194 194 195 196 196 197 197 197 198 200 202 204 204 204 206 207 208 209 210 211 212 213 212 211 211 212 212 213 213 213 213 214 214 213 212 210 210 213 216 219 220 219 215 211 210 211 215 218 219 220 221 223 227 230 232 233 234 235 235
195 197 198 198 197 195 193 192 192 193 194 194 195 195 196 197 198 199 200 201 202 203 205 206 206 207 208 210 210 211 213 214 214 212 212 212 212 213 213 213 213 213 213 212 211 209 210 212 216 219 221 220 218 214 211 211 214 217 218 219 220 222 226 230 232 235 237 240 242
195 196 197 196 195 194 194 193 193 193 193 194 194 194 194 195 197 199 200 200 201 203 206 207 207 207 209 210 211 212 213 213 213 213 212 212 212 213 213 214 213 212 211 211 210 209 209 211 214 218 220 221 219 215 211 210 212 214 218 221 222 225 229 232 235 237 240 244 247
194 195 195 195 194 193 193 194 193 193 193 193 193 193 193 194 196 198 199 200 202 204 206 207 207 208 209 210 211 212 212 212 212 212 212 212 212 213 213 214 213 212 211 209 208 208 207 209 212 215 218 218 217 214 210 208 208 213 218 221 225 230 234 237 239 241 244 247 248
193 193 193 192 192 192 192 193 193 193 193 193 193 193 194 195 197 199 201 202 203 203 204 205 206 207 208 209 210 211 211 211 211 211 211 211 212 213 213 213 212 211 210 209 207 206 206 208 211 213 215 216 213 210 206 205 206 211 218 222 227 233 238 241 244 246 247 248 249
193 192 191 191 191 192 192 192 191 191 192 193 194 195 196 197 199 200 202 202 202 202 203 205 206 208 209 210 210 210 210 210 209 209 210 210 211 212 213 213 212 210 209 208 206 205 205 208 211 213 214 214 212 209 207 205 207 212 217 222 228 234 240 244 247 248 249 250 251
191 191 190 189 190 191 193 192 192 192 193 194 196 197 199 200 201 202 202 202 203 204 204 205 206 209 210 211 211 210 210 209 208 207 208 209 210 212 213 212 211 210 208 207 205 204 204 206 209 213 214 214 213 211 210 209 210 214 218 222 227 232 237 242 246 248 251 253 255
187 186 186 185 188 191 192 192 194 195 196 197 198 199 201 202 203 204 203 204 204 204 204 205 206 208 209 211 211 211 210 208 207 206 207 208 210 211 212 212 210 208 207 205 204 204 204 206 208 211 213 215 214 213 212 213 214 217 220 224 227 230 234 238 242 246 250 254 257
186 185 184 184 187 190 192 193 195 198 200 200 200 201 202 204 205 205 205 205 204 204 205 206 207 208 209 210 211 211 210 208 207 206 206 207 209 211 211 211 210 208 206 205 203 203 203 206 208 209 211 212 213 214 214 216 218 221 223 227 230 233 234 237 240 243 247 252 257
186 186 186 187 189 191 193 194 196 199 201 202 202 202 203 204 205 205 205 204 204 205 206 207 208 209 209 210 210 210 209 208 207 206 206 207 208 209 210 210 209 208 206 205 204 203 204 206 208 209 209 211 212 214 215 217 220 223 226 229 234 237 239 240 241 243 247 251 255
189 190 190 191 193 194 195 196 198 200 202 203 202 202 203 204 205 205 204 204 205 205 206 207 209 209 210 209 209 208 207 206 206 205 205 205 206 207 208 208 208 208 207 206 205 205 206 208 209 209 209 210 211 214 216 219 222 226 229 233 237 242 245 246 247 248 250 252 255
193 195 195 196 196 197 198 198 199 201 202 203 203 203 203 204 204 204 204 205 205 205 205 206 207 208 208 208 207 206 205 204 204 203 203 203 204 206 207 208 208 207 207 206 207 207 208 209 210 210 210 210 212 214 218 221 225 229 234 238 242 247 251 252 253 254 255 257 260
196 198 200 200 200 200 200 200 200 201 202 202 203 203 203 203 203 204 204 205 206 206 205 204 203 204 206 206 206 205 204 203 202 202 202 203 204 206 208 208 207 207 207 207 207 209 210 211 211 211 212 212 213 215 219 223 228 233 239 244 249 253 255 257 258 259 261 263 266
198 200 202 202 202 202 201 201 201 201 202 202 203 203 203 203 203 203 204 204 204 204 203 202 201 201 203 205 206 205 204 203 203 203 203 204 205 207 209 209 207 207 207 207 208 209 210 211 212 212 212 213 214 216 219 224 229 235 241 247 252 256 258 260 261 264 267 269 270
199 201 202 203 203 203 202 202 201 201 202 202 202 202 203 203 202 202 203 204 203 203 202 203 204 204 204 205 206 206 205 204 204 204 205 206 207 208 209 209 208 207 207 208 209 210 210 211 211 211 212 214 216 218 221 225 230 236 242 248 253 256 260 263 266 268 271 272 272
199 201 203 203 204 204 204 203 203 203 204 204 203 203 204 204 203 203 204 205 205 205 205 207 208 209 208 206 206 206 206 205 205 206 206 208 209 210 211 210 209 208 208 210 211 211 211 210 210 210 211 214 217 220 224 228 233 238 243 248 252 256 261 265 269 272 273 273 273
199 201 203 204 206 207 207 207 207 208 209 209 208 208 207 208 207 206 206 207 208 210 211 211 211 210 209 208 206 205 205 206 206 207 208 209 210 211 212 211 210 209 209 211 212 213 213 212 210 210 212 215 219 222 227 231 236 241 245 249 253 258 263 268 272 275 275 274 275
201 203 205 207 209 211 211 212 212 213 214 213 212 211 210 210 210 209 208 209 211 213 214 213 211 209 208 207 206 206 206 207 207 208 208 209 210 211 212 212 210 209 209 211 212 213 213 212 211 212 214 217 221 225 230 235 239 244 247 251 256 261 267 272 275 276 276 275 275
204 207 209 211 213 214 214 215 215 215 215 215 214 213 212 211 211 211 211 212 213 213 213 213 211 209 207 207 206 206 206 207 207 207 208 209 210 211 212 212 211 210 210 210 211 211 211 211 212 214 217 221 225 230 235 239 243 247 252 257 263 270 275 279 279 278 277 277 276
207 210 213 214 215 216 217 216 216 216 215 215 215 213 212 212 211 212 213 214 213 212 211 211 212 211 209 208 207 206 206 206 206 206 207 208 209 211 213 213 212 210 209 209 209 210 211 212 214 217 220 225 230 236 241 245 249 254 261 268 275 281 284 284 282 281 280 279 279
210 213 216 218 219 219 219 218 217 216 216 215 214 213 212 211 211 211 211 211 211 210 210 210 211 211 210 209 208 207 205 204 203 204 205 206 208 210 212 213 212 211 209 209 209 210 211 213 216 220 224 230 236 241 245 250 255 263 269 277 282 285 285 283 282 280 280 280 279
213 216 218 220 221 220 219 218 216 215 215 214 213 212 211 210 210 209 208 208 209 209 209 209 209 209 209 209 208 206 205 203 201 201 202 205 207 209 212 213 212 211 210 210 210 211 213 216 219 223 228 234 240 244 248 252 259 267 273 279 283 283 282 280 279 277 277 277 277
213 216 219 220 220 219 218 217 214 213 213 214 213 212 211 210 209 208 207 207 208 208 207 207 207 207 207 207 206 206 206 204 202 201 201 203 207 210 212 213 213 212 211 211 211 213 216 219 223 228 233 238 242 245 249 255 262 268 274 278 279 279 278 277 276 276 275 275 275
212 214 216 217 217 217 216 214 213 213 213 213 213 212 211 209 209 208 207 207 207 206 206 205 205 205 205 205 205 205 205 205 205 204 203 204 206 209 212 214 214 213 213 212 213 215 218 223 228 233 237 240 243 247 253 260 267 272 275 277 276 275 274 274 274 275 276 276 276
210 211 213 215 215 215 214 213 212 212 213 213 213 212 211 210 209 208 208 207 206 205 205 205 204 204 205 205 205 205 204 205 205 206 206 207 208 211 213 215 216 216 215 214 215 218 222 227 232 237 241 243 247 253 260 267 273 276 277 276 274 273 271 272 273 275 276 276 276
208 210 213 214 214 214 214 213 212 211 212 213 213 212 211 210 209 208 207 207 205 204 203 203 204 205 205 205 205 206 205 205 206 206 208 210 212 214 216 218 219 219 218 217 219 222 227 233 238 242 245 249 254 261 268 273 276 278 278 276 274 272 271 271 272 273 274 274 275
207 209 211 213 213 213 213 211 210 211 212 213 213 212 211 209 208 208 207 206 204 202 201 201 203 204 204 205 206 206 206 206 206 207 209 211 214 217 219 221 222 222 221 221 223 227 232 237 241 245 249 254 258 264 270 274 276 277 276 273 271 270 269 269 270 270 270 271 271
204 206 208 210 212 211 211 210 211 211 212 213 212 211 209 208 207 206 206 204 203 202 201 201 202 202 204 205 205 205 205 206 207 208 209 211 214 218 220 223 224 225 225 225 228 233 238 243 247 249 250 251 255 260 266 270 273 274 272 270 268 267 267 267 267 267 267 267 267
201 203 205 209 210 211 211 211 211 211 211 211 210 209 208 206 205 205 205 204 203 202 202 202 202 202 204 205 205 205 205 206 208 209 211 213 216 219 221 224 226 228 230 233 237 243 248 253 256 256 253 251 252 256 262 267 269 269 269 267 266 265 264 264 264 264 264 264 265
199 202 205 207 209 211 211 211 210 209 209 208 208 207 206 206 206 205 205 205 203 201 200 201 202 202 203 204 205 206 206 207 209 211 213 215 217 220 223 226 229 232 236 241 247 253 258 261 261 260 258 255 255 257 261 265 266 267 267 267 266 265 265 264 263 263 264 264 264
196 200 203 205 207 209 210 209 208 207 206 206 206 206 206 206 206 206 205 204 203 202 201 202 203 203 203 204 205 207 208 210 211 213 215 216 219 221 225 229 233 238 243 248 254 260 265 266 265 264 264 264 263 264 265 267 267 267 266 266 266 266 266 266 265 265 266 266 267
192 196 200 202 205 206 206 206 206 205 205 205 206 206 206 206 205 204 203 203 203 204 205 206 207 207 208 209 209 209 211 212 214 215 217 218 220 223 227 233 238 244 249 256 262 268 271 273 272 272 272 271 270 270 269 270 269 268 267 267 267 268 268 268 269 269 269 270 270
191 193 197 200 202 203 204 204 204 204 205 205 206 207 207 207 206 204 203 203 204 205 207 209 210 210 210 211 213 214 214 214 216 217 219 220 222 226 232 239 246 252 259 265 271 276 278 278 277 277 277 276 274 273 272 271 270 269 269 269 269 270 271 271 272 273 273 274 274
191 191 195 199 201 202 203 203 204 205 205 206 207 207 207 206 206 205 204 203 203 204 205 207 208 208 207 207 210 212 214 216 217 219 221 223 226 232 240 250 257 265 271 276 280 282 283 282 281 280 279 277 275 274 273 271 270 270 270 271 272 273 274 275 276 276 276 277 277
184 187 193 198 201 202 203 204 205 206 207 208 208 207 205 204 203 202 202 201 201 200 201 202 202 203 203 204 205 209 213 217 219 221 223 228 235 244 255 265 272 277 282 285 286 286 285 283 282 281 278 276 274 273 272 271 271 272 272 274 275 276 278 278 279 279 280 280 280
169 178 188 195 199 202 203 205 205 206 206 206 206 204 202 200 199 199 199 199 198 196 195 196 196 198 200 203 205 209 214 218 221 225 230 239 249 259 269 276 281 285 287 288 287 285 284 282 281 279 276 274 273 273 272 273 273 274 275 277 278 279 280 281 282 282 283 283 283
147 162 175 184 191 195 198 200 201 200 200 198 197 196 195 194 194 195 196 197 196 195 192 192 193 196 199 203 207 211 216 221 227 235 246 257 267 274 278 281 284 287 289 288 286 284 282 281 280 278 276 273 273 273 274 274 275 277 278 279 280 281 282 283 284 285 285 286 286
122 137 149 159 167 176 183 184 185 185 185 186 186 186 187 187 187 188 190 191 191 191 192 192 194 198 203 208 213 217 224 233 244 256 267 276 281 284 284 284 285 288 289 288 286 284 283 282 281 279 277 275 274 274 275 276 277 278 279 280 281 283 284 285 286 287 288 288 289
106 113 121 126 133 144 154 157 161 167 172 176 178 179 179 179 180 182 183 183 184 187 191 195 199 205 211 218 225 234 246 258 269 277 284 288 290 289 287 285 285 287 288 288 286 285 283 282 281 280 278 276 276 276 276 277 278 278 279 281 282 284 286 287 289 289 289 290 291